Regional Weather Roundup
Issued by NWS Green Bay, WI

Home | Current Version | Previous Version | Graphics & Text | Print | Product List | Glossary Off
Versions: 1 2 3 4 5 6 7 8 9 10 11 12 13 14 15 16 17 18 19 20 21 22 23 24 25 26 27 28 29 30 31 32 33 34 35 36 37 38 39 40 41 42 43 44 45 46 47 48 49 50

000
ASUS43 KGRB 231310
RWRGRB

NORTH-CENTRAL AND NORTHEAST WISCONSIN REGIONAL WEATHER ROUNDUP
NATIONAL WEATHER SERVICE GREEN BAY WI
700 AM CST MON JAN 23 2017

WIZ005-009-010>012-018-019-231400-
NORTH CENTRAL WISCONSIN

CITY           SKY/WX    TMP DP  RH WIND       PRES   REMARKS
IRONWOOD       FOG       34  33  96 W5        29.74S VSB 1/2
MANITOWISH WTR FOG       32  32 100 CALM      29.72S VSB 3/4
ARBOR VITAE    FOG       34  33  97 CALM      29.72S VSB 3/4
EAGLE RIVER    FOG       32  32 100 CALM      29.72S VSB 3/4
LAND O LAKES   CLOUDY    33  33 100 CALM      29.73S
RHINELANDER    FOG       33  33 100 CALM      29.73R VSB 1/2
PHILLIPS       FOG       32  32 100 CALM      29.73S VSB 1/2
ANTIGO         CLOUDY    32  32 100 CALM      29.74R
TOMAHAWK       CLOUDY    32  32  99 CALM      29.74R
MERRILL        CLOUDY    33  33 100 CALM        N/A
$$

WIZ013-073-231400-
NORTHEAST WISCONSIN

CITY           SKY/WX    TMP DP  RH WIND       PRES   REMARKS
IRON MOUNTAIN  CLOUDY    34  31  88 NW5       29.73R
MARINETTE      NOT AVBL
OCONTO         CLOUDY    35  34  97 NW3       29.75S
$$

WIZ017-030-035>037-045-231400-
CENTRAL WISCONSIN

CITY           SKY/WX    TMP DP  RH WIND       PRES   REMARKS
MEDFORD        FOG       32  32  99 CALM      29.74R VSB 1/4
WAUSAU         CLOUDY    34  33  96 CALM      29.73R
MOSINEE        CLOUDY    34  34 100 CALM      29.75R
MARSHFIELD     FOG       33  32  96 NW3       29.74R VSB 1/2
WISC RAPIDS    CLOUDY    34  34 100 CALM      29.77R
STEVENS POINT  CLOUDY    32  32 100 CALM      29.76R
WAUPACA        CLOUDY    37  36  96 CALM      29.76R FOG
SHAWANO        CLOUDY    36  34  94 CALM      29.76R
CLINTONVILLE   CLOUDY    34  34 100 CALM      29.76R
WAUTOMA        CLOUDY    34  33  96 W5        29.77
$$

WIZ038-039-048-051-231400-
FOX VALLEY

CITY           SKY/WX    TMP DP  RH WIND       PRES   REMARKS
NWS GREEN BAY  CLOUDY    36  36 100 NW5       29.75S
APPLETON         N/A     36  36 100 NW7       29.74R FOG
OSHKOSH        FOG       35  34  96 NW6       29.74S VSB 3/4
FOND DU LAC    CLOUDY    36  33  89 NW6       29.75R FOG
$$

WIZ022-050-052-231400-
EAST CENTRAL WISCONSIN

CITY           SKY/WX    TMP DP  RH WIND       PRES   REMARKS
EPHRAIM        FOG       35  35 100 N8        29.72S VSB 1
WASHINGTON ISL FOG       33  33 100 N5        29.73S VSB 1/2
STURGEON BAY   CLOUDY    36  36 100 NW6       29.75R FOG
MANITOWOC      CLOUDY    36  36 100 NW7       29.75R FOG
SHEBOYGAN      CLOUDY    36  35  96 NW6       29.74R FOG
$$

LMZ563-521-522-541>543-231400-
LAKESHORE

STATION/POSITION TIME  TEMP    WIND        PRES    VSBY  WAVE
                       AIR SEA DIR/SP/G                  HT/PER
                 (UTC) (F)     (DEG/KT/KT) (MB)    (MI)  (FT/S)
SHEBOYGAN LKSHOR 1300   37     330/  6/  7 1007.6R
KEWAUNEE LKSHORE 1242   36     350/  3/  6 1006.8R
NORTHPORT PIER   1240   34     320/  5/  7 1007.1R
SISTER BAY LKSHO 1235   34        CALM       N/A
MENOMINEE LKSHOR 1242          300/  6/  6 1006.7R
$$




USA.gov is the U.S. government's official web portal to all federal, state and local government web resources and services.